| time (UTC) | temp F | wind direction | speed MPH | gust MPH | rain 1hr in | rain 24hr in | rain mn in | humidity % | barometer mb |
| 20260505021002 | 0 | 198 | 5.0 | 11.0 | 0.00 | 0.00 | 0.00 | 1003.4 | |
| 20260505020501 | 68 | 237 | 6.0 | 11.0 | 0.00 | 0.00 | 0.00 | 1003.3 | |
| 20260505020006 | 0 | 245 | 7.0 | 14.0 | 0.00 | 0.00 | 0.00 | 54 | 1003.3 |
| 20260505015501 | 69 | 167 | 6.0 | 14.0 | 0.00 | 0.00 | 0.00 | 100 | 1003.3 |
| 20260505015001 | 0 | 223 | 7.0 | 11.0 | 0.00 | 0.00 | 0.00 | 1003.2 | |
| 20260505014502 | 69 | 207 | 7.0 | 11.0 | 0.00 | 0.00 | 0.00 | 54 | 1003.1 |
| 20260505013501 | 69 | 203 | 6.0 | 10.0 | 0.00 | 0.00 | 0.00 | 53 | 1003.1 |
| 20260505013001 | 69 | 149 | 6.0 | 10.0 | 0.00 | 0.00 | 0.00 | 1003.0 | |
| 20260505012503 | 69 | 163 | 5.0 | 10.0 | 0.00 | 0.00 | 0.00 | 53 | 1002.9 |
| 20260505011503 | 70 | 221 | 5.0 | 10.0 | 0.00 | 0.00 | 0.00 | 100 | 1002.8 |
| 20260505011004 | 0 | 203 | 6.0 | 11.0 | 0.00 | 0.00 | 0.00 | 1002.7 | |
| 20260505010505 | 70 | 210 | 6.0 | 11.0 | 0.00 | 0.00 | 0.00 | 1002.7 | |
| 20260505010004 | 0 | 217 | 6.0 | 15.0 | 0.00 | 0.00 | 0.00 | 50 | 1002.5 |
| 20260505005002 | 0 | 198 | 6.0 | 13.0 | 0.00 | 0.00 | 0.00 | 1002.5 | |
| 20260505004003 | 0 | 162 | 8.0 | 13.0 | 0.00 | 0.00 | 0.00 | 1002.4 | |
| 20260505003504 | 0 | 181 | 7.0 | 14.0 | 0.00 | 0.00 | 0.00 | 1002.4 | |
| 20260505003001 | 0 | 214 | 8.0 | 14.0 | 0.00 | 0.00 | 0.00 | 1002.4 | |
| 20260505002001 | 0 | 214 | 8.0 | 15.0 | 0.00 | 0.00 | 0.00 | 1002.2 | |
| 20260505001503 | 0 | 184 | 6.0 | 16.0 | 0.00 | 0.00 | 0.00 | 1002.2 | |
| 20260505001003 | 0 | 163 | 9.0 | 16.0 | 0.00 | 0.00 | 0.00 | 1002.2 | |
| 20260505000502 | 0 | 210 | 8.0 | 14.0 | 0.00 | 0.00 | 0.00 | 1002.1 | |
| 20260504235501 | 0 | 219 | 9.0 | 14.0 | 0.00 | 0.00 | 0.00 | 1002.2 | |
| 20260504234005 | 74 | 175 | 7.0 | 19.0 | 0.00 | 0.00 | 0.00 | 1002.5 | |
| 20260504233003 | 0 | 229 | 11.0 | 22.0 | 0.00 | 0.00 | 0.00 | 1002.7 | |
| 20260504232504 | 0 | 245 | 14.0 | 22.0 | 0.00 | 0.00 | 0.00 | 1002.6 | |
| 20260504231502 | 73 | 240 | 13.0 | 21.0 | 0.00 | 0.00 | 0.00 | 1002.8 | |
| 20260504231003 | 0 | 263 | 13.0 | 21.0 | 0.00 | 0.00 | 0.00 | 100 | 1002.9 |
| 20260504230501 | 0 | 182 | 13.0 | 20.0 | 0.00 | 0.00 | 0.00 | 1003.2 | |
| 20260504230005 | 0 | 212 | 12.0 | 20.0 | 0.00 | 0.00 | 0.00 | 1003.1 | |
| 20260504225504 | 0 | 233 | 8.0 | 23.0 | 0.00 | 0.00 | 0.00 | 1003.2 | |
| 20260504225001 | 0 | 236 | 10.0 | 23.0 | 0.00 | 0.00 | 0.00 | 1003.2 | |
| 20260504224002 | 0 | 178 | 11.0 | 17.0 | 0.00 | 0.00 | 0.00 | 1003.2 | |
| 20260504222501 | 0 | 207 | 9.0 | 17.0 | 0.00 | 0.00 | 0.00 | 1003.4 | |
| 20260504220004 | 0 | 195 | 7.0 | 15.0 | 0.00 | 0.00 | 0.00 | 1003.5 | |
| 20260504215502 | 0 | 224 | 8.0 | 16.0 | 0.00 | 0.00 | 0.00 | 100 | 1003.5 |
| 20260504215002 | 0 | 224 | 9.0 | 22.0 | 0.00 | 0.00 | 0.00 | 1003.6 | |
| 20260504214502 | 0 | 172 | 12.0 | 19.0 | 0.00 | 0.00 | 0.00 | 1003.8 | |
| 20260504213503 | 0 | 175 | 9.0 | 18.0 | 0.00 | 0.00 | 0.00 | 1003.7 | |
| 20260504213002 | 0 | 258 | 10.0 | 24.0 | 0.00 | 0.00 | 0.00 | 1003.7 | |
| 20260504212501 | 0 | 134 | 9.0 | 24.0 | 0.00 | 0.00 | 0.00 | 1003.8 | |
| 20260504211001 | 0 | 155 | 11.0 | 22.0 | 0.00 | 0.00 | 0.00 | 1004.1 | |
| 20260504210504 | 0 | 191 | 9.0 | 22.0 | 0.00 | 0.00 | 0.00 | 1004.2 | |
| 20260504210003 | 0 | 169 | 12.0 | 20.0 | 0.00 | 0.00 | 0.00 | 1004.1 | |
| 20260504205501 | 0 | 233 | 11.0 | 24.0 | 0.00 | 0.00 | 0.00 | 1004.3 | |
| 20260504205002 | 0 | 238 | 13.0 | 24.0 | 0.00 | 0.00 | 0.00 | 1004.1 | |
| 20260504204501 | 0 | 199 | 10.0 | 17.0 | 0.00 | 0.00 | 0.00 | 1004.2 | |
| 20260504204001 | 0 | 238 | 10.0 | 18.0 | 0.00 | 0.00 | 0.00 | 1004.0 | |
| 20260504203503 | 0 | 229 | 10.0 | 18.0 | 0.00 | 0.00 | 0.00 | 1004.0 | |
| 20260504203002 | 0 | 207 | 12.0 | 17.0 | 0.00 | 0.00 | 0.00 | 1004.1 | |
| 20260504202501 | 0 | 172 | 11.0 | 20.0 | 0.00 | 0.00 | 0.00 | 1004.2 | |
| 20260504202001 | 0 | 252 | 12.0 | 19.0 | 0.00 | 0.00 | 0.00 | 1004.2 | |
| 20260504201501 | 0 | 229 | 11.0 | 20.0 | 0.00 | 0.00 | 0.00 | 1004.3 | |
| 20260504201001 | 0 | 242 | 11.0 | 20.0 | 0.00 | 0.00 | 0.00 | 1004.4 | |
| 20260504200501 | 0 | 227 | 11.0 | 19.0 | 0.00 | 0.00 | 0.00 | 1004.4 | |
| 20260504200005 | 0 | 212 | 13.0 | 18.0 | 0.00 | 0.00 | 0.00 | 1004.2 | |
| 20260504195502 | 0 | 233 | 10.0 | 16.0 | 0.00 | 0.00 | 0.00 | 1004.2 | |
| 20260504195001 | 0 | 195 | 8.0 | 18.0 | 0.00 | 0.00 | 0.00 | 1004.2 | |
| 20260504194502 | 0 | 277 | 12.0 | 18.0 | 0.00 | 0.00 | 0.00 | 1004.5 | |
| 20260504193501 | 0 | 225 | 9.0 | 23.0 | 0.00 | 0.00 | 0.00 | 1004.9 | |
| 20260504193002 | 0 | 249 | 11.0 | 23.0 | 0.00 | 0.00 | 0.00 | 1005.0 | |
| 20260504192503 | 0 | 226 | 10.0 | 19.0 | 0.00 | 0.00 | 0.00 | 1005.0 | |
| 20260504192001 | 0 | 236 | 11.0 | 19.0 | 0.00 | 0.00 | 0.00 | 1004.8 | |
| 20260504191502 | 0 | 224 | 13.0 | 19.0 | 0.00 | 0.00 | 0.00 | 1004.9 | |
| 20260504191002 | 0 | 252 | 12.0 | 19.0 | 0.00 | 0.00 | 0.00 | 1005.2 | |
| 20260504190501 | 0 | 215 | 13.0 | 22.0 | 0.00 | 0.00 | 0.00 | 1005.3 | |
| 20260504185503 | 0 | 226 | 10.0 | 27.0 | 0.00 | 0.02 | 0.00 | 1005.2 | |
| 20260504185002 | 0 | 205 | 16.0 | 27.0 | 0.00 | 0.02 | 0.00 | 1005.3 | |
| 20260504184505 | 0 | 284 | 15.0 | 22.0 | 0.00 | 0.02 | 0.00 | 1005.3 | |
| 20260504183502 | 0 | 219 | 17.0 | 29.0 | 0.00 | 0.02 | 0.00 | 1005.4 | |
| 20260504183002 | 0 | 253 | 17.0 | 29.0 | 0.00 | 0.02 | 0.00 | 1005.3 | |
| 20260504182501 | 0 | 223 | 14.0 | 27.0 | 0.00 | 0.02 | 0.00 | 1005.1 | |
| 20260504182003 | 0 | 269 | 15.0 | 26.0 | 0.00 | 0.02 | 0.00 | 1005.1 | |
| 20260504181501 | 0 | 240 | 17.0 | 28.0 | 0.00 | 0.02 | 0.00 | 1005.1 | |
| 20260504181002 | 0 | 277 | 17.0 | 28.0 | 0.00 | 0.02 | 0.00 | 1005.1 | |
| 20260504180505 | 0 | 263 | 18.0 | 29.0 | 0.00 | 0.02 | 0.00 | 1004.9 | |
| 20260504180007 | 0 | 188 | 16.0 | 29.0 | 0.00 | 0.02 | 0.00 | 1004.9 | |
| 20260504175504 | 0 | 222 | 13.0 | 25.0 | 0.00 | 0.02 | 0.00 | 1004.9 | |
| 20260504175003 | 0 | 270 | 14.0 | 24.0 | 0.00 | 0.02 | 0.00 | 1004.8 | |
| 20260504174501 | 0 | 254 | 15.0 | 24.0 | 0.00 | 0.02 | 0.00 | 1004.9 | |
| 20260504174002 | 0 | 254 | 10.0 | 20.0 | 0.00 | 0.02 | 0.00 | 1004.9 | |
| 20260504173501 | 0 | 207 | 10.0 | 20.0 | 0.00 | 0.02 | 0.00 | 1005.0 | |
| 20260504173001 | 0 | 243 | 11.0 | 21.0 | 0.00 | 0.02 | 0.00 | 1005.0 | |
| 20260504172501 | 0 | 224 | 13.0 | 21.0 | 0.00 | 0.02 | 0.00 | 1005.0 | |
| 20260504171501 | 0 | 267 | 13.0 | 22.0 | 0.00 | 0.02 | 0.00 | 1004.9 | |
| 20260504170503 | 0 | 189 | 11.0 | 19.0 | 0.00 | 0.02 | 0.00 | 1005.0 | |
| 20260504151003 | 66 | 259 | 8.0 | 15.0 | 0.00 | 0.02 | 0.00 | 61 | 1006.4 |
| 20260504141001 | 62 | 214 | 9.0 | 12.0 | 0.00 | 0.02 | 0.00 | 66 | 1006.9 |
| 20260504140502 | 62 | 236 | 7.0 | 11.0 | 0.00 | 0.02 | 0.00 | 67 | 1006.9 |
| 20260504130500 | 58 | 233 | 7.0 | 12.0 | 0.00 | 0.02 | 0.00 | 70 | 1007.3 |
| 20260504110500 | 49 | 168 | 3.0 | 6.0 | 0.00 | 0.02 | 0.00 | 77 | 1007.4 |
| 20260504100500 | 50 | 166 | 2.0 | 6.0 | 0.00 | 0.02 | 0.00 | 75 | 1007.5 |
| 20260504082000 | 50 | 200 | 4.0 | 8.0 | 0.00 | 0.02 | 0.00 | 72 | 1008.0 |
| 20260504081500 | 50 | 196 | 4.0 | 8.0 | 0.00 | 0.02 | 0.00 | 73 | 1008.0 |
| 20260504081002 | 50 | 162 | 4.0 | 8.0 | 0.00 | 0.02 | 0.00 | 73 | 1008.1 |
| 20260504080500 | 50 | 178 | 4.0 | 8.0 | 0.00 | 0.02 | 0.00 | 73 | 1008.1 |
| 20260504050502 | 53 | 200 | 3.0 | 7.0 | 0.00 | 0.02 | 0.00 | 67 | 1009.6 |
| 20260504050006 | 53 | 171 | 3.0 | 8.0 | 0.00 | 0.02 | 0.00 | 67 | 1009.5 |
| 20260504045501 | 53 | 247 | 3.0 | 8.0 | 0.00 | 0.02 | 0.00 | 67 | 1009.5 |
| 20260504045001 | 53 | 194 | 4.0 | 7.0 | 0.00 | 0.02 | 0.00 | 67 | 1009.6 |
| 20260504044504 | 53 | 143 | 4.0 | 10.0 | 0.00 | 0.02 | 0.00 | 67 | 1009.6 |
| 20260504044002 | 53 | 166 | 3.0 | 10.0 | 0.00 | 0.02 | 0.00 | 66 | 1009.6 |
| 20260504043503 | 53 | 154 | 4.0 | 8.0 | 0.00 | 0.02 | 0.00 | 66 | 1009.7 |
| 20260504043003 | 53 | 157 | 4.0 | 9.0 | 0.00 | 0.02 | 0.00 | 66 | 1009.7 |
| 20260504042502 | 53 | 177 | 5.0 | 9.0 | 0.00 | 0.02 | 0.00 | 66 | 1009.7 |
| 20260504042002 | 53 | 160 | 5.0 | 9.0 | 0.00 | 0.02 | 0.00 | 66 | 1009.8 |
| 20260504041003 | 53 | 169 | 5.0 | 10.0 | 0.00 | 0.02 | 0.00 | 66 | 1009.8 |
| 20260504040501 | 53 | 219 | 4.0 | 10.0 | 0.00 | 0.02 | 0.00 | 66 | 1009.9 |
| 20260504040007 | 53 | 200 | 4.0 | 9.0 | 0.00 | 0.02 | 0.00 | 66 | 1009.9 |
| 20260504035502 | 53 | 164 | 5.0 | 9.0 | 0.00 | 0.02 | 0.02 | 66 | 1009.9 |
| 20260504035003 | 53 | 159 | 3.0 | 9.0 | 0.00 | 0.02 | 0.02 | 66 | 1010.0 |
| 20260504034501 | 54 | 181 | 3.0 | 9.0 | 0.00 | 0.02 | 0.02 | 65 | 1010.1 |
| 20260504034002 | 54 | 154 | 4.0 | 9.0 | 0.00 | 0.02 | 0.02 | 65 | 1010.2 |
| 20260504033003 | 54 | 177 | 4.0 | 8.0 | 0.00 | 0.02 | 0.02 | 64 | 1010.3 |
| 20260504032502 | 54 | 155 | 4.0 | 9.0 | 0.00 | 0.02 | 0.02 | 64 | 1010.3 |
| 20260504032002 | 54 | 193 | 4.0 | 9.0 | 0.00 | 0.02 | 0.02 | 64 | 1010.3 |
| 20260504031502 | 54 | 176 | 4.0 | 8.0 | 0.00 | 0.02 | 0.02 | 64 | 1010.3 |
| 20260504031003 | 55 | 194 | 4.0 | 8.0 | 0.00 | 0.02 | 0.02 | 63 | 1010.3 |
| 20260504030503 | 55 | 159 | 5.0 | 9.0 | 0.00 | 0.02 | 0.02 | 63 | 1010.3 |
| 20260504030004 | 55 | 178 | 5.0 | 10.0 | 0.00 | 0.02 | 0.02 | 63 | 1010.4 |
| 20260504025504 | 55 | 194 | 5.0 | 10.0 | 0.00 | 0.02 | 0.02 | 63 | 1010.4 |
| 20260504025005 | 55 | 222 | 5.0 | 9.0 | 0.00 | 0.02 | 0.02 | 63 | 1010.4 |
| 20260504024004 | 55 | 133 | 5.0 | 9.0 | 0.00 | 0.02 | 0.02 | 63 | 1010.5 |
| 20260504023504 | 55 | 176 | 5.0 | 9.0 | 0.00 | 0.02 | 0.02 | 63 | 1010.6 |
| 20260504023003 | 55 | 203 | 4.0 | 8.0 | 0.00 | 0.02 | 0.02 | 63 | 1010.6 |
| 20260504022502 | 55 | 166 | 4.0 | 7.0 | 0.00 | 0.02 | 0.02 | 63 | 1010.5 |